Weather History for KGPI - December, 2014

Change the Weather History Date:

Tuesday, December 16, 2014

  Actual Average Record
Temperature  
Mean Temperature 25 °F 22 °F  
Max Temperature 30 °F 29 °F 49 °F (1906)
Min Temperature 20 °F 15 °F -21 °F (1964)
Degree Days  
Heating Degree Days 40 43  
Month to date heating degree days 617 659  
Since 1 July heating degree days 2615 2863  
Cooling Degree Days 0 0  
Month to date cooling degree days 0 0  
Year to date cooling degree days 217 147  
Moisture  
Dew Point 21 °F    
Average Humidity 81    
Maximum Humidity 92    
Minimum Humidity 69    
Precipitation  
Precipitation 0.00 in 0.05 in 0.43 in (1973)
Month to date precipitation 0.93 0.77  
Year to date precipitation 20.14 16.20  
Snow  
Snow 0.00 in - - ()
Month to date snowfall 6.5  
Year to date snowfall 55.0  
Since 1 July snowfall 16.8  
Snow Depth T in    
Sea Level Pressure  
Sea Level Pressure 30.12 in    
Wind  
Wind Speed 4 mph (NNW)    
Max Wind Speed 13 mph    
Max Gust Speed 16 mph    
Visibility 10 miles    
Events      
T = Trace of Precipitation, MM = Missing Value Source: NWS Daily Summary

Daily Weather History Graph

Daily Weather History Graph

Search for Another Location

Airport or City:

Trip Planner

Search our weather history database for the weather conditions in past years. The results will help you decide how hot, cold, wet, or windy it might be!

Date:

Astronomy

Dec. 16, 2014 Rise Set
Actual Time 8:22 AM MST 4:43 PM MST
Civil Twilight 7:45 AM MST 5:19 PM MST
Nautical Twilight 7:05 AM MST 5:59 PM MST
Astronomical Twilight 6:27 AM MST 6:37 PM MST
Moon 2:18 AM MST (12/16) 1:36 PM MST (12/16)
Length of Visible Light 9h 34m
Length of Day
8h 20m
Waning Crescent, 29% of the Moon is Illuminated
Dec 16
Waning Crescent
Dec 21
New
Dec 28
First Quarter
Jan 4
Full
Jan 13
Last Quarter

Hourly Weather History & Observations

Time (MST) Temp. Windchill Dew Point Humidity Pressure Visibility Wind Dir Wind Speed Gust Speed Precip Events Conditions
12:55 AM 23.0 °F 12.4 °F 19.0 °F 85% 30.17 in 10.0 mi North 10.4 mph - N/A   Clear
1:55 AM 23.0 °F 12.4 °F 19.0 °F 85% 30.16 in 10.0 mi North 10.4 mph - N/A   Clear
2:55 AM 23.0 °F 12.4 °F 19.0 °F 85% 30.16 in 10.0 mi North 10.4 mph - N/A   Clear
3:55 AM 21.9 °F - 19.0 °F 89% 30.16 in 10.0 mi Calm Calm - N/A   Clear
4:55 AM 21.0 °F 11.4 °F 18.0 °F 88% 30.17 in 10.0 mi ENE 8.1 mph - N/A   Clear
5:55 AM 21.0 °F 14.6 °F 19.0 °F 92% 30.15 in 10.0 mi West 4.6 mph - N/A   Clear
6:55 AM 21.9 °F 12.5 °F 18.0 °F 85% 30.14 in 10.0 mi North 8.1 mph - N/A   Clear
7:55 AM 21.0 °F 16.2 °F 18.0 °F 88% 30.15 in 10.0 mi NW 3.5 mph - N/A   Clear
8:55 AM 21.9 °F 17.2 °F 18.0 °F 85% 30.16 in 10.0 mi NNW 3.5 mph - N/A   Clear
9:55 AM 24.1 °F 19.7 °F 19.9 °F 84% 30.17 in 10.0 mi North 3.5 mph - N/A   Overcast
10:55 AM 26.1 °F 18.4 °F 19.9 °F 78% 30.15 in 10.0 mi North 6.9 mph - N/A   Overcast
11:55 AM 28.0 °F 19.3 °F 21.0 °F 75% 30.12 in 10.0 mi North 9.2 mph - N/A   Overcast
12:55 PM 28.0 °F 19.3 °F 21.0 °F 75% 30.10 in 10.0 mi North 9.2 mph - N/A   Overcast
1:55 PM 28.9 °F 25.2 °F 21.9 °F 75% 30.08 in 10.0 mi WNW 3.5 mph - N/A   Mostly Cloudy
2:55 PM 28.9 °F - 23.0 °F 78% 30.09 in 10.0 mi Calm Calm - N/A   Overcast
3:55 PM 30.0 °F - 21.9 °F 72% 30.09 in 10.0 mi Calm Calm - N/A   Overcast
4:55 PM 28.9 °F 25.2 °F 23.0 °F 78% 30.09 in 10.0 mi North 3.5 mph - N/A   Overcast
5:55 PM 28.4 °F - 21.2 °F 74% 29.98 in 10.0 mi Calm Calm - N/A   Overcast
6:55 PM 27.0 °F - 23.0 °F 85% 30.09 in 10.0 mi Calm Calm - N/A   Overcast
7:55 PM 28.0 °F - 21.9 °F 78% 30.09 in 10.0 mi Calm Calm - N/A   Overcast
8:55 PM 27.0 °F - 23.0 °F 85% 30.09 in 10.0 mi Calm Calm - N/A   Overcast
9:55 PM 27.0 °F - 24.1 °F 89% 30.08 in 10.0 mi Calm Calm - N/A   Overcast
10:55 PM 27.0 °F - 24.1 °F 89% 30.08 in - Calm Calm - N/A   Overcast
11:55 PM 26.1 °F - 24.1 °F 92% 30.09 in 10.0 mi Calm Calm - N/A   Overcast